User: anonymous   Login
Location: Unspecified
(0.0000°N, 0.0000°E)
Time: 19:30:02
(UTC+00:00)
Language:

IGS 5A - Orbit

View from above orbital plane
View from above orbital plane
View from above satellite
View from above satellite

Ground track
Ground track

The orbit data is extracted from the following two-line orbital elements,

1 36104U 09066A   21126.88795770 0.00000000  00000-0  00000-0 0    01
2 36104  97.5717 183.1666 0002930  29.8768 330.1663 14.93938748    05
Epoch (UTC): 06 May 2021 21:18:39
Eccentricity: 0.0002930
inclination: 97.5717°
perigee height: 583 km
apogee height: 588 km
right ascension of ascending node: 183.1666°
argument of perigee: 29.8768°
revolutions per day: 14.93938748
mean anomaly at epoch: 330.1663°
orbit number at epoch: 0

The dashed part of the orbit path shows where the satellite is in the earth's shadow,  

DLR